Culebra, VI

1:54 PM AST on January 16, 2017 (GMT -0400)
King

Weather History for TIST - January, 2014

Change the Weather History Date:

Tuesday, January 28, 2014

  Actual Average Record
Temperature  
Mean Temperature 80 °F 79 °F  
Max Temperature 85 °F 85 °F 89 °F (1998)
Min Temperature 74 °F 72 °F 64 °F (1995)
Degree Days  
Heating Degree Days 0 0  
Month to date heating degree days 0 0  
Since 1 July heating degree days 0 0  
Cooling Degree Days 15 14  
Month to date cooling degree days 378 392  
Year to date cooling degree days 378 392  
Growing Degree Days 28 (Base 50)    
Moisture  
Dew Point 69 °F    
Average Humidity 70    
Maximum Humidity 82    
Minimum Humidity 58    
Precipitation  
Precipitation 0.04 in 0.07 in 1.55 in (1995)
Month to date precipitation 0.96 2.20  
Year to date precipitation 0.96 2.20  
Sea Level Pressure  
Sea Level Pressure 30.06 in    
Wind  
Wind Speed 13 mph (ESE)    
Max Wind Speed 21 mph    
Max Gust Speed 28 mph    
Visibility 10 miles    
Events Rain    
T = Trace of Precipitation, MM = Missing Value Source: NWS Daily Summary

Daily Weather History Graph

Daily Weather History Graph

Search for Another Location

Airport or City:

Trip Planner

Search our weather history database for the weather conditions in past years. The results will help you decide how hot, cold, wet, or windy it might be!

Date:

Astronomy

Jan. 28, 2014 Rise Set
Actual Time 6:54 AM AST 6:11 PM AST
Civil Twilight 6:31 AM AST 6:34 PM AST
Nautical Twilight 6:04 AM AST 7:01 PM AST
Astronomical Twilight 5:38 AM AST 7:27 PM AST
Moon 4:26 AM AST (1/28) 4:01 PM AST (1/28)
Length of Visible Light 12h 03m
Length of Day
11h 17m
Waning Crescent, 7% of the Moon is Illuminated
Jan 28
Waning Crescent
Jan 30
New
Feb 6
First Quarter
Feb 14
Full
Feb 22
Last Quarter

Hourly Weather History & Observations

Time (AST) Temp. Heat Index Dew Point Humidity Pressure Visibility Wind Dir Wind Speed Gust Speed Precip Events Conditions
12:53 AM 79.0 °F - 66.9 °F 66% 30.06 in 10.0 mi ESE 17.3 mph - N/A   Mostly Cloudy
1:06 AM 78.8 °F - 68.0 °F 69% 30.05 in 10.0 mi ESE 17.3 mph 21.9 mph N/A   Mostly Cloudy
1:23 AM 78.8 °F - 68.0 °F 69% 30.05 in 10.0 mi ESE 12.7 mph 21.9 mph N/A   Overcast
1:53 AM 77.0 °F - 70.0 °F 79% 30.04 in 6.0 mi ESE 13.8 mph 23.0 mph 0.03 in Rain Light Rain
2:53 AM 75.0 °F - 71.1 °F 87% 30.03 in 10.0 mi East 8.1 mph - 0.01 in   Overcast
3:15 AM 75.2 °F - 69.8 °F 83% 30.01 in 10.0 mi East 9.2 mph - N/A   Overcast
3:51 AM 75.2 °F - 69.8 °F 83% 30.01 in 10.0 mi East 11.5 mph - N/A   Overcast
3:53 AM 75.0 °F - 69.1 °F 82% 30.01 in 10.0 mi East 10.4 mph - N/A   Overcast
4:12 AM 75.2 °F - 69.8 °F 83% 30.01 in 10.0 mi East 9.2 mph - N/A   Overcast
5:53 AM 75.0 °F - 70.0 °F 84% 30.04 in 10.0 mi East 9.2 mph - N/A   Overcast
6:53 AM 75.0 °F - 69.1 °F 82% 30.05 in 10.0 mi ESE 11.5 mph - N/A   Scattered Clouds
7:53 AM 75.9 °F - 68.0 °F 76% 30.07 in 10.0 mi East 11.5 mph - N/A   Clear
8:53 AM 80.1 °F 82.9 °F 69.1 °F 69% 30.10 in 10.0 mi ESE 15.0 mph - N/A   Clear
9:53 AM 82.0 °F 85.5 °F 69.1 °F 65% 30.12 in 10.0 mi SE 18.4 mph 24.2 mph N/A   Scattered Clouds
10:53 AM 82.0 °F 84.9 °F 68.0 °F 62% 30.13 in 10.0 mi SE 18.4 mph 25.3 mph N/A   Partly Cloudy
11:53 AM 82.9 °F 85.8 °F 68.0 °F 60% 30.11 in 10.0 mi SSE 15.0 mph 23.0 mph N/A   Partly Cloudy
12:53 PM 82.9 °F 85.4 °F 66.9 °F 58% 30.08 in 10.0 mi SE 13.8 mph 23.0 mph N/A   Mostly Cloudy
1:53 PM 84.0 °F 87.0 °F 68.0 °F 58% 30.05 in 10.0 mi SE 13.8 mph - N/A   Partly Cloudy
2:53 PM 82.0 °F 85.5 °F 69.1 °F 65% 30.04 in 10.0 mi SE 18.4 mph - N/A   Partly Cloudy
3:53 PM 82.0 °F 84.9 °F 68.0 °F 62% 30.03 in 10.0 mi SE 12.7 mph - N/A   Clear
4:53 PM 81.0 °F 83.8 °F 68.0 °F 65% 30.04 in 10.0 mi SE 15.0 mph - N/A   Clear
5:53 PM 80.1 °F 82.9 °F 69.1 °F 69% 30.05 in 10.0 mi ESE 13.8 mph 19.6 mph N/A   Mostly Cloudy
6:03 PM 78.8 °F - 68.0 °F 69% 30.04 in 10.0 mi East 16.1 mph - N/A   Mostly Cloudy
6:53 PM 79.0 °F - 69.1 °F 72% 30.06 in 10.0 mi ESE 13.8 mph - N/A   Scattered Clouds
8:53 PM 78.1 °F - 68.0 °F 71% 30.09 in 10.0 mi East 12.7 mph - N/A   Clear
9:53 PM 78.1 °F - 68.0 °F 71% 30.11 in 10.0 mi ESE 11.5 mph 20.7 mph N/A   Clear
10:53 PM 77.0 °F - 66.9 °F 71% 30.12 in 10.0 mi ESE 9.2 mph - N/A   Clear
11:53 PM 77.0 °F - 66.9 °F 71% 30.11 in 10.0 mi ESE 9.2 mph - N/A   Clear